Terminal Aerodrome Forecast
Issued by NWS Central Illinois

Home | Current Version | Previous Version | Text Only | Print | Product List | Glossary On
Versions: 1 2 3 4 5 6 7 8 9 10 11 12 13 14 15 16 17 18 19 20 21 22 23 24 25 26
000
FTUS43 KILX 271730
TAFPIA
TAF
KPIA 271730Z 2718/2818 27010G17KT P6SM VCSH OVC020
      TEMPO 2719/2721 OVC030
     FM272100 25008KT P6SM BKN030
      TEMPO 2723/2801 SCT035
     FM280100 VRB04KT P6SM SCT035 BKN120
     FM281200 14009KT P6SM VCSH OVC025=

USA.gov is the U.S. government's official web portal to all federal, state and local government web resources and services.